User: anonymous   Login
Location: Unspecified
(46.0725°N, 13.7344°E)
Time: 09:39:35
(UTC+02:00)
Language:

Cosmos 2058 - Orbit

View from above orbital plane
View from above orbital plane
View from above satellite
View from above satellite

Ground track
Ground track

The orbit data is extracted from the following two-line orbital elements,

1 20465U 90010A   24199.78455451  .00006126  00000-0  44173-3 0  9998
2 20465  82.4872 274.6146 0013761 195.4867 164.5940 15.03909469851827
Epoch (UTC): 17 July 2024 18:49:45
Eccentricity: 0.0013761
inclination: 82.4872°
perigee height: 545 km
apogee height: 564 km
right ascension of ascending node: 274.6146°
argument of perigee: 195.4867°
revolutions per day: 15.03909469
mean anomaly at epoch: 164.5940°
orbit number at epoch: 85182

The dashed part of the orbit path shows where the satellite is in the earth's shadow,  

DLR